GW4075 Weather Reports


Display with metric or nautical units.
time (UTC)temp
F
wind
direction
speed
MPH
gust
MPH
rain 1hr
in
rain 24hr
in
rain mn
in
humidity
%
barometer
mb
20260506164504 53 84 5.0 13.0 0.00 0.02 0.00 49 1012.7
20260506163004 52 86 4.0 11.0 0.00 0.02 0.00 49 1012.8
20260506161511 52 65 5.0 13.0 0.00 0.02 0.00 44 1012.6
20260506160004 53 109 2.0 10.0 0.00 0.02 0.00 47 1012.5
20260506154503 53 360 3.0 14.0 0.00 0.02 0.00 48 1012.4
20260506153002 54 90 5.0 13.0 0.00 0.02 0.00 43 1012.3
20260506151507 53 68 6.0 13.0 0.00 0.02 0.00 46 1012.1
20260506150013 53 67 4.0 9.0 0.00 0.02 0.00 49 1011.9
20260506144502 53 61 2.0 8.0 0.00 0.02 0.00 45 1011.9
20260506143002 53 350 1.0 8.0 0.00 0.02 0.00 49 1011.9
20260506141503 52 66 4.0 10.0 0.00 0.02 0.00 50 1011.9
20260506140010 52 89 3.0 12.0 0.00 0.02 0.00 52 1011.7
20260506134502 50 123 3.0 11.0 0.00 0.02 0.00 54 1011.5
20260506133002 51 86 4.0 7.0 0.00 0.02 0.00 54 1011.5
20260506131507 50 74 3.0 8.0 0.00 0.02 0.00 58 1011.3
20260506130004 49 88 2.0 7.0 0.00 0.02 0.00 61 1011.1
20260506124503 49 121 1.0 6.0 0.00 0.02 0.00 64 1011.0
20260506123002 48 84 1.0 3.0 0.00 0.02 0.00 67 1010.9
20260506121502 46 127 1.0 4.0 0.00 0.02 0.00 65 1010.5
20260506120002 45 93 0.0 6.0 0.00 0.02 0.00 67 1010.4
20260506114502 45 126 1.0 3.0 0.00 0.02 0.00 66 1010.1
20260506113002 44 66 1.0 4.0 0.00 0.02 0.00 67 1010.1
20260506111504 44 115 0.0 2.0 0.00 0.02 0.00 68 1009.8
20260506110002 45 107 0.0 1.0 0.00 0.02 0.00 70 1009.7
20260506104511 45 107 1.0 3.0 0.00 0.02 0.00 69 1009.7
20260506103007 45 104 0.0 2.0 0.00 0.02 0.00 70 1009.3
20260506101507 45 94 0.0 3.0 0.00 0.02 0.00 69 1009.3
20260506100003 45 118 0.0 2.0 0.00 0.02 0.00 71 1009.0
20260506094504 45 118 0.0 0.0 0.00 0.02 0.00 73 1008.9
20260506093004 45 118 0.0 1.0 0.00 0.02 0.00 69 1009.1
20260506091504 45 153 0.0 2.0 0.00 0.02 0.00 73 1008.7
20260506090004 45 138 0.0 1.0 0.00 0.02 0.00 72 1008.5
20260506084503 44 150 0.0 3.0 0.00 0.03 0.00 74 1008.3
20260506083006 44 89 0.0 2.0 0.00 0.03 0.00 83 1008.5
20260506081506 45 89 0.0 0.0 0.00 0.03 0.00 85 1008.4
20260506073059 45 89 0.0 0.0 0.00 0.04 0.00 86 1008.5
20260506073005 45 89 0.0 0.0 0.00 0.04 0.00 86 1008.5
20260506071504 45 89 0.0 0.0 0.00 0.04 0.00 86 1008.5
20260506061503 46 89 0.0 0.0 0.00 0.06 0.00 86 1008.8
20260506044504 46 89 0.0 1.0 0.00 0.11 0.00 85 1008.8
20260506043008 46 89 0.0 0.0 0.00 0.11 0.00 85 1008.9
20260506041502 46 89 0.0 0.0 0.00 0.11 0.00 84 1008.9
20260506040008 46 89 0.0 0.0 0.00 0.11 0.11 84 1008.9
20260506034502 46 89 0.0 0.0 0.00 0.11 0.11 83 1008.6
20260506033004 46 89 0.0 0.0 0.00 0.11 0.11 82 1008.3
20260506031502 47 89 0.0 0.0 0.00 0.11 0.11 82 1008.5
20260506030003 47 89 0.0 0.0 0.00 0.12 0.11 81 1008.8
20260506024504 47 89 0.0 0.0 0.00 0.12 0.11 80 1008.7
20260506023003 47 89 0.0 0.0 0.00 0.12 0.11 80 1008.7
20260506021504 48 89 0.0 0.0 0.01 0.12 0.11 79 1008.7
20260506020004 48 89 0.0 0.0 0.01 0.12 0.11 76 1008.7
20260506014504 49 89 0.0 0.0 0.01 0.16 0.11 73 1008.3
20260506013005 50 89 0.0 0.0 0.01 0.16 0.11 71 1008.2
20260506011504 51 89 0.0 0.0 0.00 0.15 0.10 71 1008.0
20260506010010 51 89 0.0 0.0 0.00 0.15 0.10 69 1008.1
20260506004505 52 89 0.0 0.0 0.00 0.20 0.10 69 1007.9
20260506003005 52 89 0.0 0.0 0.00 0.20 0.10 67 1008.1
20260506001504 53 89 0.0 0.0 0.00 0.20 0.10 65 1008.0
20260506000004 53 69 0.0 2.0 0.00 0.20 0.10 60 1007.9
20260505234511 53 88 1.0 3.0 0.00 0.27 0.10 57 1007.7
20260505233004 53 96 1.0 3.0 0.00 0.27 0.10 59 1007.1
20260505231504 53 75 1.0 3.0 0.00 0.27 0.10 62 1007.0
20260505230005 54 105 1.0 6.0 0.00 0.27 0.10 64 1007.1
20260505224504 54 78 1.0 4.0 0.00 0.27 0.10 66 1007.1
20260505223004 54 67 1.0 3.0 0.00 0.27 0.10 69 1007.1
20260505221504 54 67 0.0 2.0 0.00 0.27 0.10 70 1007.1
20260505220004 54 67 0.0 3.0 0.00 0.27 0.10 70 1007.1
20260505214505 54 67 0.0 2.0 0.00 0.27 0.10 71 1007.3
20260505213006 53 67 0.0 3.0 0.00 0.27 0.10 72 1007.4
20260505211511 53 67 0.0 3.0 0.00 0.27 0.10 70 1007.1
20260505210006 53 67 0.0 3.0 0.00 0.27 0.10 72 1007.2
20260505204503 53 50 1.0 4.0 0.00 0.27 0.10 70 1007.3
20260505203004 53 65 0.0 7.0 0.00 0.27 0.10 68 1007.3
20260505201506 54 74 1.0 5.0 0.00 0.27 0.10 67 1007.4
20260505200004 54 59 1.0 5.0 0.00 0.27 0.10 69 1007.5
20260505194504 54 106 2.0 4.0 0.00 0.27 0.10 67 1007.4
20260505193002 54 39 2.0 6.0 0.00 0.27 0.10 68 1007.6
20260505191503 53 57 2.0 8.0 0.00 0.27 0.10 70 1007.4
20260505190010 53 68 1.0 5.0 0.00 0.27 0.10 71 1007.8
20260505184503 53 159 0.0 3.0 0.00 0.27 0.10 73 1007.7
20260505183004 53 96 2.0 5.0 0.00 0.27 0.10 71 1007.7
20260505181503 53 351 2.0 6.0 0.00 0.27 0.10 71 1007.5
20260505180004 54 90 2.0 6.0 0.00 0.27 0.10 70 1007.4
20260505174503 54 64 4.0 10.0 0.01 0.27 0.10 72 1007.4
20260505173002 53 71 3.0 8.0 0.01 0.27 0.10 77 1007.1
20260505171506 51 86 5.0 9.0 0.01 0.27 0.10 78 1007.1
20260505170007 52 57 2.0 6.0 0.01 0.27 0.10 78 1006.8